Regional Weather Roundup
Issued by NWS Sterling, VA

Home | Current Version | Previous Version | Text Only | Print | Product List | Glossary Off
Versions: 1 2 3 4 5 6 7 8 9 10 11 12 13 14 15 16 17 18 19 20 21 22 23 24 25 26 27 28 29 30 31 32 33 34 35 36 37 38 39 40 41 42 43 44 45 46 47 48 49 50

000
ASUS41 KLWX 130010
RWRLWX

REGIONAL WEATHER ROUNDUP
NATIONAL WEATHER SERVICE BALTIMORE MD/WASHINGTON DC
800 PM EDT SAT JUL 12 2014

Note: "FAIR" indicates few or no clouds below 12,000 feet
with no significant weather and/or obstructions to visibility.
 TC=TEMPERATURE CELSIUS

 * =Non NWS site. Station does not report precipitation (e.g. rain,
    snow, etc.), thunder, or fog.

DCZ001-MDZ009-015-VAZ040>042-051-053>054-130100-
WASHINGTON METRO

CITY           SKY/WX    TMP DP  RH WIND       PRES   REMARKS
WASHINGTON NAT PTCLDY    85  68  56 SE13      30.11F
DULLES         PTCLDY    82  68  62 S8        30.11S
QUANTICO       PTCLDY    82  72  71 SE12      30.11F
LEESBURG*      CLEAR     84  72  65 S8        30.11F
GAITHERSBURG*  CLEAR     82  66  57 S8        30.15F

$$

MDZ006>007-011-014-130100-
BALTIMORE METRO

CITY           SKY/WX    TMP DP  RH WIND       PRES   REMARKS
BWI AIRPORT    MOCLDY    80  62  54 S6        30.11F
MD SCIENCE CTR   N/A     83  65  54 MISG      30.12F
MARTIN STATE   MOCLDY    82  70  65 SE7       30.13F
ANNAPOLIS      CLOUDY    80  70  71 S10G22    30.13S
FORT MEADE*    PTCLDY    77  64  65 SE7       30.14S

$$

MDZ012-015-019>023-130100-
MARYLAND EASTERN SHORE

CITY           SKY/WX    TMP DP  RH WIND       PRES   REMARKS
OCEAN CITY     CLEAR     74  70  87 SE3       30.17F
SALISBURY      NOT AVBL
BAY BRIDGE AP*   N/A     81  64  57 S12       30.12F
EASTON*        CLEAR     82  70  65 S9        30.18S

$$

MDZ017>025-130100-
SOUTHERN MARYLAND

CITY           SKY/WX    TMP DP  RH WIND       PRES   REMARKS
PATUXENT RIVER CLEAR     78  68  71 S12G17    30.14S
ST INIGOES     CLEAR     79  66  64 SE5       30.14S
LEONARDTOWN*   CLEAR     79  66  65 SE8       30.16S

$$

MDZ003>005-130100-
NORTH CENTRAL MARYLAND

CITY           SKY/WX    TMP DP  RH WIND       PRES   REMARKS
FREDERICK*     PTCLDY    82  73  74 CALM      30.12F
HAGERSTOWN APT CLEAR     83  69  62 S9        30.10F
WESTMINSTER*   CLOUDY    84  72  65 SE7       30.13F

$$

MDZ501>502-130100-
WESTERN MARYLAND

CITY           SKY/WX    TMP DP  RH WIND       PRES   REMARKS
OAKLAND*       NOT AVBL
CUMBERLAND*      N/A     86  55  35 W5        30.13S

$$

VAZ025>031-130100-
SHENANDOAH VALLEY

CITY           SKY/WX    TMP DP  RH WIND       PRES   REMARKS
WINCHESTER*    CLEAR     82  68  61 S7        30.11S
STAUNTON*      PTCLDY    80  65  59 S5        30.16S

$$

WVZ021-048>050-054>055-130100-
EASTERN WEST VIRGINIA PANHANDLE

CITY           SKY/WX    TMP DP  RH WIND       PRES   REMARKS
MARTINSBURG    PTCLDY    83  67  58 S7        30.10F
PETERSBURG*    PTCLDY    80  65  59 SE6       30.12S

$$

VAZ036>039-050-130100-
CENTRAL FOOTHILLS

CITY           SKY/WX    TMP DP  RH WIND       PRES   REMARKS
CHARLOTTESVILL PTCLDY    82  67  60 S3        30.12F
ORANGE*        PTCLDY    81  68  65 CALM      30.13F

$$

VAZ055>057-130100-
NORTH AND CENTRAL PIEDMONT

CITY           SKY/WX    TMP DP  RH WIND       PRES   REMARKS
FREDERICKSBRG* PTCLDY    86  68  54 SE6       30.10F HX  90
STAFFORD*      CLEAR     83  73  71 CALM      30.15F

$$

NCZ024-NYZ072-PAZ021-071-VAZ022-071-130100-
OTHER REGIONAL OBSERVATIONS

CITY           SKY/WX    TMP DP  RH WIND       PRES   REMARKS
NEW YORK CITY  CLEAR     76  58  53 VRB3      30.17S
PHILADELPHIA   PTCLDY    82  57  42 S16       30.14S
PITTSBURGH     CLOUDY    82  63  52 S5        30.08F
ROANOKE        CLOUDY    83  65  54 S7        30.17R
RICHMOND       MOCLDY    84  68  58 SE12      30.13S
RALEIGH        PTCLDY    84  65  52 S5        30.14S

$$

ANZ530>537-130100-
MARINE OBSERVATIONS

STATION/POSITION TIME  TEMP    WIND        PRES
                       AIR SEA DIR/SP/G
                 (UTC) (F)     (DEG/KT/KT) (MB)
THOMAS PT LIGHT  0000   80 80  170/ 18/ 20 1020.5F
BALT KEY BRIDGE  0000   81     150/ 15/ 18 1019.1F
COVE POINT       0000   78     190/ 19/ 20 1020.8F
LEWISETTA        0000   79 83  180/  8/ 10 1020.6S
SOLOMONS ISLAND  0000      83                N/A
PINEY POINT      0000          180/ 15/ 17   N/A

$$



USA.gov is the U.S. government's official web portal to all federal, state and local government web resources and services.